QPF
0.00 0.00 0.00 0.00 0.00 0.00 0.00 0.00 0.00 0.00 0.00 0.00 0.00 0.00 0.00 0.00 0.00 0.00 0.00 0.00 0.00 0.00 0.00 0.00 0.00 0.00 0.00 0.00 0.00 0.00 0.00 0.00 0.00 0.00 0.00 0.00 0.00 0.00 0.00 0.00 0.00 0.00 0.00 0.00
0.00 0.00 0.00 0.00 0.00 0.00 0.00 0.00 0.00 0.00 0.00 0.00 0.00 0.00 0.00 0.00 0.00 0.00 0.00 0.00 0.00 0.00 0.00 0.00 0.00 0.00 0.00 0.00 0.00 0.00 0.00 0.00 0.00 0.00 0.00 0.00 0.00 0.00 0.00 0.00 0.00 0.00 0.00 0.00
0.00 0.00 0.00 0.00 0.00 0.00 0.00 0.00 0.00 0.00 0.00 0.00 0.00 0.00 0.00 0.00 0.00 0.00 0.00 0.00 0.00 0.00 0.00 0.00 0.00 0.00 0.00 0.00 0.00 0.00 0.00 0.00 0.00 0.00 0.00 0.00 0.00 0.00 0.00 0.00 0.00 0.00 0.00 0.00
0.00 0.00 0.00 0.00 0.00 0.00 0.00 0.00 0.00 0.00 0.00 0.00 0.00 0.00 0.00 0.00 0.00 0.00 0.00 0.00 0.00 0.00 0.00 0.00 0.00 0.00 0.00 0.00 0.00 0.00 0.00 0.00 0.00 0.00 0.00 0.00 0.00 0.00 0.00 0.00 0.00 0.00 0.00 0.00
0.00 0.00 0.00 0.00 0.00 0.00 0.00 0.00 0.00 0.00 0.00 0.00 0.00 0.00 0.00 0.00 0.00 0.00 0.00 0.00 0.00 0.00 0.00 0.00 0.00 0.00 0.00 0.00 0.00 0.00 0.00 0.00 0.00 0.00 0.00 0.00 0.00 0.00 0.00 0.00 0.00 0.00 0.00 0.00
0.00 0.00 0.00 0.00 0.00 0.00 0.00 0.01 0.00 0.00 0.00 0.00 0.00 0.00 0.00 0.00 0.00 0.00 0.00 0.00 0.00 0.00 0.00 0.00 0.00 0.00 0.00 0.00 0.00 0.00 0.00 0.00 0.00 0.00 0.00 0.00 0.00 0.00 0.00 0.00 0.00 0.00 0.00 0.00
0.00 0.00 0.00 0.00 0.00 0.00 0.01 0.01 0.00 0.00 0.00 0.00 0.00 0.00 0.00 0.00 0.00 0.00 0.00 0.00 0.00 0.00 0.00 0.00 0.00 0.00 0.00 0.00 0.00 0.00 0.00 0.00 0.00 0.00 0.00 0.00 0.00 0.00 0.00 0.00 0.00 0.00 0.00 0.00
0.00 0.00 0.00 0.00 0.00 0.00 0.00 0.00 0.00 0.00 0.00 0.00 0.00 0.00 0.00 0.00 0.00 0.00 0.00 0.00 0.00 0.00 0.00 0.00 0.00 0.00 0.00 0.00 0.00 0.00 0.00 0.00 0.00 0.00 0.00 0.00 0.00 0.00 0.00 0.00 0.00 0.00 0.00 0.00
0.00 0.00 0.00 0.00 0.00 0.00 0.00 0.00 0.00 0.00 0.00 0.00 0.00 0.00 0.00 0.00 0.00 0.00 0.00 0.00 0.00 0.00 0.00 0.00 0.00 0.00 0.00 0.00 0.00 0.00 0.00 0.00 0.00 0.00 0.00 0.00 0.00 0.00 0.00 0.00 0.00 0.00 0.00 0.00
0.00 0.00 0.00 0.00 0.00 0.00 0.00 0.00 0.00 0.00 0.00 0.00 0.00 0.00 0.00 0.00 0.00 0.00 0.00 0.00 0.00 0.00 0.00 0.00 0.00 0.00 0.00 0.00 0.00 0.00 0.00 0.00 0.00 0.00 0.00 0.00 0.00 0.00 0.00 0.00 0.00 0.00 0.00 0.00
0.00 0.00 0.00 0.00 0.00 0.00 0.00 0.00 0.00 0.00 0.00 0.00 0.00 0.00 0.00 0.00 0.00 0.00 0.00 0.00 0.00 0.00 0.00 0.00 0.00 0.00 0.00 0.00 0.00 0.00 0.00 0.00 0.00 0.00 0.00 0.00 0.00 0.00 0.00 0.00 0.00 0.00 0.00 0.00
0.00 0.00 0.00 0.00 0.00 0.00 0.00 0.00 0.00 0.00 0.00 0.00 0.00 0.00 0.00 0.00 0.00 0.00 0.00 0.00 0.00 0.00 0.00 0.00 0.00 0.00 0.00 0.00 0.00 0.00 0.00 0.00 0.00 0.00 0.00 0.00 0.00 0.00 0.00 0.00 0.00 0.00 0.00 0.00
0.00 0.00 0.00 0.00 0.00 0.00 0.00 0.00 0.00 0.00 0.00 0.00 0.00 0.00 0.00 0.00 0.00 0.00 0.00 0.00 0.00 0.00 0.00 0.00 0.00 0.00 0.00 0.00 0.00 0.00 0.00 0.00 0.00 0.00 0.00 0.00 0.00 0.00 0.00 0.00 0.00 0.00 0.00 0.00
0.00 0.00 0.00 0.00 0.00 0.00 0.00 0.00 0.00 0.00 0.00 0.00 0.00 0.00 0.00 0.00 0.00 0.00 0.00 0.00 0.00 0.00 0.00 0.00 0.00 0.00 0.00 0.00 0.00 0.00 0.00 0.00 0.00 0.00 0.00 0.00 0.00 0.00 0.00 0.00 0.00 0.00 0.00 0.00
0.00 0.00 0.00 0.00 0.00 0.00 0.00 0.00 0.00 0.00 0.00 0.00 0.00 0.00 0.00 0.00 0.00 0.00 0.00 0.00 0.00 0.00 0.00 0.00 0.00 0.00 0.00 0.00 0.00 0.00 0.00 0.00 0.00 0.01 0.01 0.00 0.00 0.01 0.00 0.00 0.00 0.00 0.00 0.00
0.00 0.00 0.00 0.00 0.00 0.00 0.00 0.00 0.00 0.00 0.00 0.00 0.00 0.00 0.00 0.00 0.00 0.00 0.00 0.00 0.00 0.00 0.00 0.00 0.00 0.00 0.00 0.00 0.00 0.00 0.00 0.00 0.00 0.01 0.01 0.01 0.01 0.01 0.01 0.00 0.00 0.00 0.00 0.00
0.00 0.00 0.00 0.00 0.00 0.00 0.00 0.00 0.00 0.00 0.00 0.00 0.00 0.00 0.00 0.00 0.00 0.00 0.00 0.00 0.00 0.00 0.00 0.00 0.00 0.00 0.00 0.00 0.00 0.00 0.00 0.00 0.00 0.01 0.01 0.01 0.01 0.01 0.01 0.01 0.00 0.00 0.00 0.00
0.00 0.01 0.01 0.01 0.00 0.00 0.00 0.00 0.00 0.00 0.00 0.00 0.00 0.00 0.00 0.00 0.00 0.00 0.00 0.00 0.00 0.00 0.00 0.00 0.00 0.00 0.00 0.00 0.00 0.00 0.00 0.00 0.00 0.01 0.01 0.01 0.01 0.01 0.01 0.01 0.01 0.00 0.00 0.00
0.00 0.00 0.00 0.00 0.00 0.00 0.00 0.00 0.00 0.00 0.00 0.00 0.00 0.00 0.00 0.00 0.00 0.00 0.00 0.00 0.00 0.00 0.00 0.00 0.00 0.00 0.00 0.00 0.00 0.00 0.01 0.01 0.01 0.01 0.01 0.02 0.02 0.02 0.02 0.01 0.01 0.00 0.00 0.00
0.00 0.00 0.00 0.00 0.00 0.00 0.00 0.00 0.00 0.00 0.00 0.00 0.00 0.00 0.00 0.00 0.00 0.00 0.00 0.00 0.00 0.00 0.00 0.00 0.00 0.00 0.00 0.00 0.00 0.00 0.01 0.01 0.01 0.01 0.01 0.02 0.02 0.02 0.02 0.01 0.01 0.00 0.00 0.00
0.00 0.00 0.00 0.00 0.00 0.00 0.00 0.00 0.00 0.00 0.00 0.00 0.00 0.00 0.00 0.00 0.00 0.00 0.00 0.00 0.00 0.00 0.00 0.00 0.00 0.01 0.01 0.01 0.01 0.01 0.01 0.01 0.01 0.02 0.02 0.02 0.03 0.03 0.02 0.02 0.01 0.01 0.00 0.00
0.00 0.00 0.00 0.00 0.00 0.00 0.00 0.00 0.00 0.00 0.00 0.00 0.00 0.00 0.00 0.00 0.00 0.00 0.00 0.00 0.00 0.00 0.00 0.00 0.01 0.01 0.02 0.02 0.02 0.02 0.02 0.02 0.02 0.02 0.03 0.03 0.03 0.04 0.04 0.03 0.02 0.01 0.01 0.01
0.00 0.00 0.00 0.00 0.00 0.00 0.00 0.00 0.00 0.00 0.00 0.00 0.00 0.00 0.00 0.00 0.00 0.00 0.00 0.00 0.00 0.01 0.01 0.01 0.02 0.02 0.02 0.02 0.02 0.02 0.02 0.02 0.02 0.02 0.03 0.03 0.03 0.04 0.04 0.04 0.03 0.02 0.02 0.01
0.00 0.00 0.00 0.00 0.00 0.00 0.00 0.00 0.00 0.00 0.00 0.00 0.00 0.00 0.01 0.01 0.01 0.01 0.01 0.01 0.01 0.01 0.01 0.02 0.02 0.02 0.02 0.02 0.02 0.03 0.03 0.03 0.03 0.02 0.02 0.03 0.03 0.03 0.03 0.03 0.03 0.02 0.02 0.02
0.00 0.00 0.00 0.00 0.00 0.00 0.00 0.00 0.00 0.00 0.00 0.00 0.01 0.01 0.01 0.01 0.01 0.01 0.01 0.01 0.01 0.02 0.02 0.03 0.03 0.03 0.02 0.02 0.03 0.03 0.04 0.04 0.04 0.04 0.03 0.03 0.03 0.03 0.03 0.03 0.02 0.02 0.02 0.02
0.00 0.00 0.00 0.00 0.00 0.00 0.00 0.00 0.00 0.01 0.01 0.01 0.01 0.01 0.01 0.01 0.02 0.01 0.02 0.02 0.02 0.03 0.03 0.03 0.04 0.04 0.03 0.03 0.03 0.03 0.04 0.05 0.05 0.05 0.05 0.05 0.04 0.03 0.03 0.03 0.02 0.02 0.01 0.02
0.00 0.00 0.01 0.01 0.01 0.01 0.01 0.01 0.01 0.01 0.01 0.02 0.02 0.01 0.01 0.02 0.02 0.02 0.02 0.03 0.04 0.05 0.04 0.04 0.04 0.05 0.06 0.06 0.07 0.06 0.05 0.05 0.05 0.05 0.06 0.06 0.05 0.04 0.03 0.03 0.02 0.02 0.02 0.02
MSLP
1014.85 1014.90 1014.98 1015.06 1015.15 1015.20 1015.18 1015.05 1014.79 1014.39 1013.86 1013.22 1012.51 1011.78 1011.08 1010.44 1009.89 1009.43 1009.06 1008.76 1008.52 1008.32 1008.15 1008.01 1007.90 1007.84 1007.85 1007.94 1008.12 1008.38 1008.71 1009.09 1009.49 1009.89 1010.25 1010.56 1010.80 1010.97 1011.08 1011.13 1011.16 1011.17 1011.19 1011.22
1015.17 1015.13 1015.08 1015.01 1014.92 1014.80 1014.63 1014.42 1014.13 1013.78 1013.37 1012.90 1012.40 1011.88 1011.37 1010.87 1010.40 1009.95 1009.53 1009.13 1008.74 1008.38 1008.04 1007.74 1007.50 1007.33 1007.27 1007.31 1007.46 1007.70 1008.04 1008.42 1008.85 1009.27 1009.66 1010.01 1010.29 1010.51 1010.67 1010.76 1010.82 1010.85 1010.87 1010.89
1015.46 1015.39 1015.26 1015.10 1014.90 1014.67 1014.43 1014.16 1013.87 1013.57 1013.25 1012.91 1012.56 1012.19 1011.81 1011.40 1010.97 1010.52 1010.04 1009.54 1009.02 1008.51 1008.02 1007.58 1007.22 1006.95 1006.80 1006.77 1006.86 1007.07 1007.36 1007.73 1008.13 1008.55 1008.96 1009.34 1009.67 1009.95 1010.16 1010.32 1010.43 1010.50 1010.55 1010.58
1015.77 1015.70 1015.56 1015.37 1015.13 1014.86 1014.58 1014.29 1014.01 1013.74 1013.48 1013.22 1012.95 1012.67 1012.35 1011.98 1011.56 1011.08 1010.54 1009.95 1009.33 1008.71 1008.11 1007.57 1007.10 1006.74 1006.50 1006.38 1006.39 1006.51 1006.73 1007.03 1007.38 1007.76 1008.16 1008.55 1008.93 1009.26 1009.56 1009.80 1009.99 1010.13 1010.22 1010.29
1016.12 1016.07 1015.96 1015.79 1015.56 1015.30 1015.02 1014.74 1014.47 1014.21 1013.97 1013.74 1013.49 1013.23 1012.92 1012.55 1012.11 1011.59 1011.00 1010.35 1009.67 1008.98 1008.31 1007.69 1007.15 1006.71 1006.38 1006.17 1006.07 1006.07 1006.17 1006.36 1006.62 1006.93 1007.29 1007.67 1008.07 1008.47 1008.84 1009.18 1009.46 1009.70 1009.87 1009.99
1016.49 1016.48 1016.41 1016.28 1016.10 1015.88 1015.62 1015.36 1015.10 1014.84 1014.59 1014.34 1014.08 1013.78 1013.45 1013.04 1012.57 1012.02 1011.40 1010.72 1010.01 1009.29 1008.59 1007.94 1007.36 1006.85 1006.43 1006.11 1005.89 1005.75 1005.71 1005.75 1005.87 1006.08 1006.36 1006.72 1007.12 1007.56 1008.01 1008.45 1008.84 1009.18 1009.45 1009.65
1016.85 1016.86 1016.84 1016.76 1016.63 1016.46 1016.24 1016.00 1015.74 1015.47 1015.20 1014.91 1014.60 1014.26 1013.88 1013.43 1012.92 1012.35 1011.72 1011.04 1010.34 1009.63 1008.94 1008.29 1007.68 1007.12 1006.63 1006.20 1005.84 1005.54 1005.33 1005.20 1005.16 1005.24 1005.42 1005.71 1006.10 1006.57 1007.07 1007.60 1008.09 1008.54 1008.92 1009.21
1017.12 1017.15 1017.16 1017.13 1017.05 1016.93 1016.76 1016.54 1016.29 1016.01 1015.70 1015.37 1015.01 1014.62 1014.19 1013.71 1013.17 1012.59 1011.97 1011.32 1010.65 1009.98 1009.32 1008.68 1008.06 1007.47 1006.91 1006.37 1005.87 1005.42 1005.02 1004.71 1004.51 1004.43 1004.49 1004.70 1005.04 1005.50 1006.05 1006.64 1007.23 1007.77 1008.25 1008.64
1017.26 1017.29 1017.32 1017.33 1017.30 1017.22 1017.09 1016.90 1016.66 1016.37 1016.05 1015.69 1015.29 1014.86 1014.39 1013.89 1013.35 1012.77 1012.18 1011.56 1010.94 1010.31 1009.69 1009.08 1008.46 1007.84 1007.21 1006.58 1005.95 1005.35 1004.78 1004.30 1003.92 1003.68 1003.61 1003.71 1003.99 1004.42 1004.97 1005.60 1006.25 1006.89 1007.46 1007.94
1017.25 1017.27 1017.31 1017.34 1017.35 1017.31 1017.22 1017.06 1016.84 1016.57 1016.24 1015.87 1015.45 1015.00 1014.52 1014.00 1013.46 1012.91 1012.34 1011.76 1011.18 1010.60 1010.01 1009.41 1008.80 1008.16 1007.48 1006.77 1006.03 1005.30 1004.59 1003.94 1003.41 1003.02 1002.81 1002.81 1003.00 1003.37 1003.90 1004.54 1005.23 1005.92 1006.57 1007.14
1017.07 1017.08 1017.13 1017.19 1017.23 1017.23 1017.18 1017.06 1016.87 1016.62 1016.31 1015.94 1015.53 1015.08 1014.59 1014.08 1013.55 1013.01 1012.45 1011.90 1011.35 1010.79 1010.23 1009.64 1009.03 1008.36 1007.65 1006.88 1006.07 1005.24 1004.42 1003.66 1002.99 1002.48 1002.14 1002.02 1002.12 1002.42 1002.90 1003.52 1004.21 1004.94 1005.64 1006.28
1016.77 1016.79 1016.85 1016.93 1017.01 1017.04 1017.03 1016.95 1016.80 1016.58 1016.30 1015.95 1015.55 1015.11 1014.63 1014.13 1013.60 1013.06 1012.51 1011.97 1011.42 1010.87 1010.31 1009.72 1009.10 1008.42 1007.69 1006.89 1006.04 1005.16 1004.28 1003.43 1002.68 1002.06 1001.63 1001.40 1001.40 1001.61 1002.02 1002.59 1003.26 1003.99 1004.73 1005.43
1016.41 1016.45 1016.53 1016.64 1016.74 1016.81 1016.83 1016.79 1016.67 1016.49 1016.23 1015.91 1015.53 1015.10 1014.63 1014.12 1013.59 1013.04 1012.48 1011.92 1011.36 1010.79 1010.21 1009.62 1008.99 1008.32 1007.58 1006.78 1005.93 1005.03 1004.13 1003.25 1002.45 1001.77 1001.25 1000.93 1000.84 1000.96 1001.28 1001.78 1002.41 1003.13 1003.87 1004.61
1016.04 1016.11 1016.23 1016.37 1016.49 1016.59 1016.63 1016.61 1016.52 1016.36 1016.12 1015.82 1015.45 1015.03 1014.55 1014.04 1013.49 1012.91 1012.32 1011.73 1011.13 1010.54 1009.94 1009.33 1008.70 1008.03 1007.32 1006.54 1005.72 1004.85 1003.96 1003.09 1002.27 1001.55 1000.98 1000.58 1000.40 1000.43 1000.66 1001.08 1001.65 1002.34 1003.08 1003.84
1015.71 1015.82 1015.97 1016.13 1016.28 1016.38 1016.43 1016.42 1016.33 1016.17 1015.94 1015.64 1015.27 1014.84 1014.36 1013.82 1013.25 1012.64 1012.01 1011.38 1010.75 1010.12 1009.50 1008.88 1008.25 1007.60 1006.91 1006.18 1005.40 1004.58 1003.74 1002.89 1002.08 1001.35 1000.74 1000.28 1000.02 999.95 1000.10 1000.43 1000.94 1001.58 1002.31 1003.09
1015.42 1015.58 1015.76 1015.93 1016.07 1016.17 1016.20 1016.17 1016.07 1015.89 1015.65 1015.33 1014.95 1014.51 1014.01 1013.45 1012.84 1012.21 1011.54 1010.87 1010.21 1009.55 1008.90 1008.28 1007.65 1007.03 1006.38 1005.70 1004.99 1004.23 1003.43 1002.63 1001.84 1001.10 1000.45 999.95 999.60 999.46 999.51 999.77 1000.21 1000.80 1001.52 1002.31
1015.18 1015.36 1015.55 1015.72 1015.84 1015.91 1015.90 1015.83 1015.69 1015.48 1015.21 1014.87 1014.46 1014.00 1013.48 1012.90 1012.27 1011.61 1010.92 1010.23 1009.53 1008.86 1008.20 1007.58 1006.97 1006.37 1005.76 1005.13 1004.47 1003.77 1003.02 1002.25 1001.48 1000.73 1000.06 999.50 999.09 998.86 998.83 999.01 999.39 999.94 1000.64 1001.44
1014.94 1015.14 1015.32 1015.46 1015.54 1015.55 1015.50 1015.37 1015.17 1014.91 1014.60 1014.23 1013.80 1013.32 1012.78 1012.19 1011.56 1010.89 1010.19 1009.48 1008.78 1008.10 1007.45 1006.83 1006.23 1005.65 1005.08 1004.49 1003.87 1003.20 1002.49 1001.74 1000.97 1000.21 999.51 998.89 998.42 998.12 998.01 998.13 998.45 998.97 999.66 1000.48
1014.68 1014.86 1015.02 1015.11 1015.14 1015.09 1014.96 1014.76 1014.50 1014.19 1013.83 1013.43 1012.98 1012.49 1011.95 1011.37 1010.74 1010.08 1009.40 1008.70 1008.01 1007.33 1006.69 1006.08 1005.49 1004.94 1004.38 1003.81 1003.21 1002.56 1001.86 1001.11 1000.33 999.56 998.81 998.15 997.62 997.25 997.09 997.14 997.43 997.92 998.61 999.45
1014.37 1014.53 1014.64 1014.68 1014.63 1014.51 1014.31 1014.04 1013.72 1013.36 1012.96 1012.54 1012.08 1011.59 1011.06 1010.50 1009.89 1009.26 1008.60 1007.92 1007.25 1006.60 1005.97 1005.37 1004.80 1004.24 1003.69 1003.13 1002.53 1001.88 1001.18 1000.42 999.63 998.82 998.05 997.35 996.76 996.35 996.14 996.16 996.41 996.89 997.58 998.44
1014.02 1014.14 1014.20 1014.17 1014.06 1013.86 1013.59 1013.26 1012.89 1012.48 1012.06 1011.62 1011.16 1010.68 1010.18 1009.64 1009.07 1008.47 1007.84 1007.20 1006.56 1005.92 1005.31 1004.72 1004.15 1003.60 1003.05 1002.48 1001.88 1001.23 1000.51 999.75 998.94 998.12 997.32 996.59 995.98 995.54 995.30 995.29 995.53 996.00 996.70 997.57
1013.65 1013.73 1013.72 1013.63 1013.45 1013.19 1012.85 1012.48 1012.06 1011.63 1011.19 1010.75 1010.30 1009.84 1009.36 1008.85 1008.32 1007.75 1007.16 1006.55 1005.93 1005.32 1004.72 1004.14 1003.58 1003.03 1002.47 1001.90 1001.29 1000.64 999.93 999.17 998.36 997.54 996.75 996.02 995.41 994.97 994.72 994.71 994.94 995.41 996.10 996.98
1013.28 1013.30 1013.24 1013.09 1012.85 1012.53 1012.16 1011.74 1011.30 1010.86 1010.41 1009.97 1009.53 1009.09 1008.64 1008.16 1007.66 1007.12 1006.56 1005.97 1005.37 1004.78 1004.19 1003.61 1003.06 1002.51 1001.96 1001.40 1000.80 1000.17 999.48 998.74 997.97 997.19 996.43 995.74 995.16 994.74 994.51 994.51 994.74 995.21 995.90 996.77
1012.90 1012.88 1012.77 1012.57 1012.29 1011.93 1011.52 1011.09 1010.63 1010.18 1009.74 1009.31 1008.89 1008.46 1008.03 1007.57 1007.08 1006.56 1006.01 1005.44 1004.85 1004.27 1003.69 1003.12 1002.57 1002.04 1001.51 1000.97 1000.42 999.82 999.19 998.52 997.82 997.11 996.43 995.81 995.29 994.92 994.73 994.75 994.99 995.45 996.13 996.97
1012.51 1012.45 1012.30 1012.06 1011.74 1011.37 1010.94 1010.50 1010.05 1009.60 1009.17 1008.76 1008.34 1007.93 1007.50 1007.05 1006.57 1006.05 1005.51 1004.93 1004.35 1003.77 1003.19 1002.64 1002.11 1001.60 1001.11 1000.62 1000.12 999.61 999.06 998.49 997.90 997.30 996.73 996.21 995.79 995.49 995.36 995.41 995.67 996.12 996.76 997.56
1012.07 1011.97 1011.79 1011.52 1011.18 1010.79 1010.37 1009.93 1009.50 1009.07 1008.66 1008.26 1007.86 1007.45 1007.03 1006.57 1006.09 1005.56 1005.01 1004.43 1003.84 1003.25 1002.69 1002.15 1001.64 1001.17 1000.73 1000.31 999.90 999.49 999.06 998.61 998.15 997.70 997.26 996.87 996.56 996.36 996.30 996.39 996.66 997.10 997.69 998.43
1011.51 1011.38 1011.17 1010.89 1010.55 1010.16 1009.76 1009.34 1008.93 1008.53 1008.15 1007.76 1007.38 1006.98 1006.56 1006.10 1005.60 1005.06 1004.49 1003.90 1003.31 1002.72 1002.16 1001.64 1001.17 1000.75 1000.37 1000.03 999.72 999.42 999.12 998.81 998.51 998.20 997.92 997.67 997.48 997.38 997.39 997.53 997.81 998.23 998.78 999.45
Thickness
5711 5717 5718 5717 5717 5718 5710 5702 5692 5698 5701 5710 5718 5723 5727 5731 5732 5733 5733 5733 5733 5732 5731 5731 5731 5730 5729 5728 5725 5723 5718 5714 5711 5709 5706 5702 5699 5696 5694 5691 5689 5686 5683 5681
5705 5715 5713 5710 5713 5713 5712 5709 5702 5701 5702 5716 5719 5722 5722 5724 5725 5725 5726 5729 5730 5730 5730 5729 5729 5728 5727 5726 5724 5722 5718 5714 5712 5708 5704 5701 5698 5695 5692 5690 5687 5684 5682 5679
5688 5698 5704 5694 5706 5708 5705 5706 5703 5694 5700 5711 5713 5714 5714 5715 5717 5718 5720 5724 5726 5727 5728 5729 5729 5728 5726 5725 5723 5719 5716 5714 5710 5706 5703 5700 5697 5693 5690 5687 5685 5682 5680 5677
5680 5687 5680 5693 5712 5711 5702 5698 5700 5700 5702 5706 5708 5711 5712 5713 5711 5712 5715 5718 5721 5724 5726 5728 5728 5727 5726 5723 5719 5716 5713 5711 5708 5704 5701 5698 5694 5691 5688 5685 5682 5680 5677 5675
5670 5671 5677 5694 5706 5706 5696 5685 5692 5693 5696 5700 5704 5703 5701 5706 5707 5708 5711 5714 5717 5720 5722 5723 5723 5722 5720 5717 5715 5712 5710 5708 5706 5703 5699 5695 5691 5689 5686 5683 5680 5678 5676 5673
5666 5666 5663 5681 5701 5708 5696 5671 5684 5686 5686 5689 5690 5676 5681 5696 5701 5704 5706 5709 5711 5714 5715 5715 5716 5716 5713 5711 5709 5708 5708 5707 5705 5702 5697 5694 5690 5687 5684 5681 5678 5676 5673 5671
5661 5658 5665 5681 5693 5694 5666 5660 5676 5678 5677 5677 5672 5670 5677 5687 5692 5695 5697 5700 5703 5704 5704 5706 5707 5707 5705 5704 5704 5706 5705 5703 5701 5698 5696 5692 5688 5685 5681 5678 5674 5671 5669 5666
5653 5650 5655 5678 5679 5667 5661 5668 5669 5669 5669 5668 5668 5671 5674 5677 5679 5682 5685 5689 5691 5692 5693 5695 5696 5697 5697 5697 5700 5699 5698 5696 5695 5694 5692 5689 5684 5680 5677 5673 5669 5665 5663 5660
5655 5654 5662 5668 5667 5667 5665 5660 5660 5659 5660 5660 5659 5659 5661 5664 5666 5668 5671 5674 5677 5678 5680 5683 5685 5686 5686 5689 5690 5690 5689 5689 5688 5688 5686 5684 5680 5675 5671 5668 5664 5661 5658 5655
5650 5654 5656 5657 5658 5657 5656 5652 5652 5651 5650 5649 5646 5647 5647 5649 5652 5654 5656 5659 5662 5664 5666 5669 5673 5675 5677 5679 5679 5679 5679 5680 5680 5679 5677 5676 5674 5672 5668 5664 5660 5658 5654 5651
5639 5643 5645 5646 5645 5644 5644 5643 5641 5640 5638 5636 5634 5633 5633 5633 5635 5638 5641 5643 5646 5648 5651 5655 5660 5662 5665 5666 5668 5668 5669 5670 5671 5671 5670 5667 5666 5665 5664 5663 5661 5658 5653 5650
5632 5636 5630 5631 5634 5634 5632 5630 5628 5626 5623 5622 5619 5618 5618 5618 5620 5622 5624 5627 5630 5633 5637 5642 5646 5649 5653 5654 5656 5657 5658 5659 5660 5660 5660 5658 5655 5652 5654 5654 5655 5655 5652 5648
5632 5633 5627 5625 5623 5622 5619 5617 5614 5611 5608 5606 5605 5604 5603 5603 5604 5606 5608 5610 5613 5618 5623 5627 5631 5635 5639 5642 5644 5646 5648 5649 5650 5651 5651 5650 5648 5646 5642 5641 5643 5644 5643 5642
5625 5621 5614 5612 5608 5607 5605 5602 5599 5596 5594 5592 5590 5589 5588 5588 5589 5590 5591 5594 5599 5603 5608 5613 5617 5622 5626 5629 5632 5635 5637 5640 5641 5642 5643 5643 5643 5641 5639 5635 5631 5629 5631 5632
5612 5608 5603 5600 5596 5593 5590 5586 5583 5580 5578 5577 5576 5574 5573 5573 5573 5575 5577 5580 5584 5588 5592 5597 5602 5608 5612 5615 5619 5622 5625 5628 5630 5631 5633 5635 5635 5633 5631 5630 5627 5622 5620 5620
5597 5593 5589 5584 5581 5578 5574 5571 5567 5565 5564 5563 5561 5560 5559 5559 5560 5561 5563 5565 5567 5571 5577 5581 5587 5593 5598 5601 5604 5609 5614 5618 5619 5620 5622 5624 5625 5624 5623 5621 5619 5616 5615 5614
5581 5576 5573 5569 5566 5563 5560 5557 5554 5551 5550 5548 5547 5547 5546 5546 5546 5548 5550 5551 5553 5557 5562 5566 5572 5578 5583 5587 5590 5596 5601 5605 5609 5610 5613 5615 5617 5618 5617 5615 5613 5612 5611 5609
5571 5566 5561 5556 5552 5549 5547 5544 5541 5538 5536 5536 5535 5534 5532 5531 5531 5534 5536 5539 5541 5545 5549 5553 5558 5563 5569 5573 5577 5583 5588 5592 5595 5599 5603 5606 5608 5611 5610 5609 5608 5605 5602 5600
5559 5554 5549 5544 5540 5536 5532 5529 5528 5525 5524 5522 5521 5519 5518 5518 5517 5519 5521 5523 5525 5530 5537 5540 5546 5550 5555 5560 5565 5570 5575 5580 5584 5588 5592 5596 5598 5601 5602 5602 5601 5599 5596 5593
5544 5540 5535 5531 5528 5523 5519 5517 5515 5513 5511 5509 5507 5506 5506 5505 5505 5506 5507 5508 5511 5514 5521 5526 5531 5536 5542 5547 5552 5557 5562 5567 5572 5577 5580 5584 5588 5591 5594 5594 5593 5592 5590 5588
5529 5526 5522 5518 5514 5511 5508 5505 5502 5500 5500 5497 5495 5494 5494 5494 5494 5493 5493 5497 5502 5504 5507 5513 5518 5523 5528 5535 5540 5544 5549 5554 5559 5565 5569 5574 5577 5580 5583 5585 5585 5584 5583 5581
5514 5511 5508 5505 5501 5499 5497 5493 5490 5489 5488 5487 5486 5484 5483 5483 5483 5483 5484 5484 5489 5493 5496 5500 5504 5511 5517 5523 5526 5531 5536 5541 5547 5552 5557 5562 5565 5569 5572 5574 5575 5576 5574 5572
5499 5497 5495 5492 5489 5487 5485 5482 5480 5478 5477 5477 5476 5475 5473 5473 5472 5472 5475 5478 5479 5483 5485 5489 5494 5500 5506 5510 5514 5519 5524 5529 5535 5540 5545 5550 5554 5558 5560 5562 5564 5564 5563 5561
5488 5485 5483 5481 5477 5474 5472 5472 5470 5469 5468 5467 5467 5466 5464 5463 5464 5465 5466 5469 5472 5474 5475 5479 5484 5490 5495 5497 5502 5507 5512 5517 5523 5528 5533 5537 5541 5545 5548 5549 5550 5551 5551 5550
5477 5475 5472 5468 5465 5464 5463 5462 5461 5460 5459 5459 5458 5458 5456 5455 5455 5458 5458 5459 5462 5464 5466 5470 5476 5481 5483 5486 5490 5495 5501 5506 5511 5516 5520 5524 5528 5531 5534 5537 5538 5538 5538 5537
5466 5464 5462 5460 5458 5456 5454 5452 5451 5451 5450 5450 5451 5450 5449 5449 5449 5449 5450 5451 5452 5455 5457 5460 5464 5469 5472 5476 5480 5485 5490 5495 5500 5504 5508 5512 5516 5518 5521 5524 5525 5526 5525 5524
5456 5454 5452 5451 5450 5448 5447 5445 5443 5443 5443 5442 5442 5443 5442 5442 5442 5441 5442 5442 5443 5445 5448 5451 5454 5458 5462 5466 5470 5474 5479 5484 5489 5493 5496 5500 5504 5507 5509 5511 5512 5512 5512 5511